Location: Natural Bridges National Monument
(37.6093°N, 109.9767°W)
Time: 12:15:41
(UTC-06:00)

USA 32 - Visible Passes

Search period start: 02 July 2015 00:00
Search period end: 12 July 2015 00:00
Orbit: 776 x 785 km, 85.0° (Epoch: 01 July)

Date Brightness Start Highest point End Pass type
(mag) Time Alt. Az. Time Alt. Az. Time Alt. Az.
02 Jul 5.1 00:45:01 34° ENE 00:45:01 34° ENE 00:49:02 10° NNE visible
02 Jul 5.6 02:25:32 23° WNW 02:25:32 23° WNW 02:29:28 10° NNW visible
03 Jul 5.8 00:12:25 19° ENE 00:12:25 19° ENE 00:15:30 10° NE visible
03 Jul 4.9 01:52:57 41° WNW 01:52:57 41° WNW 01:57:23 10° N visible
03 Jul 6.4 23:39:49 10° ENE 23:39:49 10° ENE 23:40:12 10° ENE visible
04 Jul 4.3 01:20:21 65° NNW 01:20:21 65° NNW 01:24:54 10° N visible
05 Jul 4.5 00:47:45 52° NE 00:47:45 52° NE 00:52:07 10° NNE visible
05 Jul 6.1 02:28:16 15° WNW 02:28:27 15° WNW 02:31:12 10° NW visible
06 Jul 5.2 00:15:08 30° ENE 00:15:08 30° ENE 00:19:00 10° NNE visible
06 Jul 5.5 01:55:39 26° WNW 01:55:39 26° WNW 01:59:42 10° NNW visible
06 Jul 5.9 23:42:30 17° ENE 23:42:30 17° ENE 23:45:20 10° NE visible
07 Jul 4.8 01:23:02 45° WNW 01:23:02 45° WNW 01:27:31 10° N visible
08 Jul 4.2 00:50:24 68° N 00:50:24 68° N 00:54:59 10° N visible
09 Jul 4.6 00:17:45 48° ENE 00:17:45 48° ENE 00:22:08 10° NNE visible
09 Jul 6.1 01:58:17 17° WNW 01:58:26 16° WNW 02:01:35 10° NW visible
09 Jul 5.3 23:45:06 27° ENE 23:45:06 27° ENE 23:48:56 10° NNE visible
10 Jul 5.4 01:25:38 29° WNW 01:25:38 29° WNW 01:29:54 10° NNW visible
10 Jul 5.9 23:12:27 16° ENE 23:12:27 16° ENE 23:15:06 10° NE visible
11 Jul 4.6 00:52:58 51° WNW 00:52:58 51° WNW 00:57:38 10° N visible
